Location: Six Mile Lake
(44.9000°N, 79.7170°W)
Time: 07:39:22
(UTC-04:00)

O/OREOS (USA 219) - Pass Details

Date: 06 July 2022
Orbit: 621 x 646 km, 72.0° (Epoch: 22 May)

Event Time Altitude Azimuth Distance (km) Brightness Sun altitude
Rises 22:50:50 0° 350° (N) 2,966 ? -14.0°
Reaches altitude 10° 22:54:16 10° 16° (NNE) 2,053 ? -14.4°
Maximum altitude 22:56:37 14° 47° (NE) 1,816 ? -14.6°
Drops below altitude 10° 22:58:57 10° 78° (ENE) 2,048 ? -14.9°
Enters shadow 23:00:05 - 89° (E) 2,302 ? -15.0°
